Погода в Балакове

Россия / Саратовская область     52°01′06″N   47°49′10″E
темп.,
°C
ветер,
м/с
пор.,
м/с
влажн.,
%
обл.,
%
осадки,
мм/ч
давл.,
гПа
погр.,
м
16 июня, ср
ср1601:00+18всв347564 0.4 100650
04:00+17в22798 0.4 100613
07:00+19юз488186 0.0 1007273
10:00+24юз79674 0.0 1008955
13:00+26юз795466 0.0 10081943
16:00+25юз796218 0.9 10081351
19:00+24зюз7117417 0.8 1008764
22:00+21з410849 0.8 1010238
17 июня, чт
чт1701:00+19зсз38915 0.0 1010153
04:00+18сз38935 0.0 1012164
07:00+20с69846 0.0 1013447
10:00+22с68640 0.0 1014921
13:00+24ссв78482 0.0 10161310
16:00+24ссв78440 0.0 10171515
19:00+22ссв47580 0.0 1018681
22:00+18с511720 0.0 1020273
18 июня, пт
пт1801:00+15с38740 0.0 1020170
04:00+13с36770 0.0 102294
07:00+16ссв612690 0.0 1023545
10:00+19св79480 0.0 10251276
13:00+20св78450 0.0 10251502
16:00+21св79450 0.0 10251508
19:00+19св58560 0.0 1025954
22:00+15ссв33741 0.0 102646
19 июня, сб
сб1901:00+13ссв35792 0.0 102774
04:00+12ссв338592 0.0 102838
07:00+15св347557 0.0 1029203
10:00+20св22575 0.0 1028806
13:00+23св22430 0.0 10281213
16:00+24св22405 0.0 10261191
19:00+24всв22524 0.0 1025194
22:00+18ююв01638 0.0 102611
20 июня, вс
вс2001:00+17з11682 0.0 102611
04:00+16сз22750 0.0 102611
07:00+20ссз22710 0.0 1026134
10:00+25с22600 0.0 1026754
13:00+28ссв23500 0.0 10241558
16:00+29св33460 0.0 10241819
19:00+28в23580 0.0 1023327
22:00+23с11670 0.0 102311